Location: Greenhawk Observatory
(37.3417°N, 122.0298°W)
Time: 21:07:13
(UTC-08:00)

Daily predictions for brighter satellites

Satellite Brightness Start Highest point End
(mag) Time Altitude Azimuth Time Altitude Azimuth Time Altitude Azimuth
Cosmos 1992 Rocket 4.0 18:12:59 10° NNW 18:18:14 82° ENE 18:23:28 10° SSE
Cosmos 1782 Rocket 4.1 18:14:49 10° SSW 18:19:11 66° W 18:23:38 10° N
Nadezhda 1 Rocket 4.0 18:13:18 10° N 18:19:19 61° E 18:25:17 10° SSE
DNEPR-1 R/B 4.1 18:15:45 10° NNW 18:19:42 36° NE 18:23:39 10° ESE
Cosmos 407 Rocket 3.6 18:14:51 10° S 18:19:56 56° ESE 18:25:06 10° NNE
Cosmos 676 Rocket 4.5 18:17:27 10° SSE 18:22:13 39° E 18:27:02 10° NE
Cosmos 1238 Rocket 4.2 18:21:54 10° ENE 18:22:17 10° ENE 18:22:39 10° E
Gbstr 26 Del rocket 4.1 18:20:24 10° S 18:23:23 21° SE 18:26:15 10° E
Tiangong 2 1.7 18:20:30 10° WNW 18:23:27 41° NNE 18:26:23 10° E
DELTA 2 R/B (1) 3.7 18:17:57 10° W 18:23:34 71° N 18:29:11 10° E
Meteor 1-20 Rocket 4.3 18:19:45 10° S 18:25:29 66° E 18:31:17 10° NNE
Meteor 1-28 Rocket 3.2 18:22:21 10° NNE 18:26:09 90° WNW 18:29:58 10° SSW
BREEZE-M DEB (TANK) 3.9 18:17:26 10° NW 18:27:34 55° NNE 18:30:48 10° ESE
Cosmos 2322 Rocket 2.2 18:26:24 10° NNW 18:31:59 66° ENE 18:37:33 10° SSE
Cosmos 44 Rocket 3.8 18:28:06 10° NW 18:32:47 61° WSW 18:37:22 10° SSE
Cosmos 1536 4.5 18:31:23 10° ESE 18:33:26 14° E 18:35:29 10° NE
COSMO-SKYMED 1 3.4 18:30:28 10° N 18:34:44 57° WNW 18:38:58 10° SSW
Okean 2 Rocket 4.0 18:33:45 10° SSW 18:38:07 54° W 18:42:29 10° N
Okean 1 3.4 18:37:00 10° N 18:40:59 53° E 18:44:57 10° SSE
Cosmos 1461 2.9 18:40:34 10° NNW 18:44:31 55° ENE 18:48:34 10° SE
ATLAS CENTAUR R/B 4.1 18:43:58 10° SSE 18:44:45 10° SE 18:45:28 10° SE
Cosmos 1140 Rocket 3.9 18:40:16 10° SSE 18:44:56 37° E 18:49:39 10° NE
Cosmos 1190 Rocket 4.3 18:40:30 10° SSW 18:45:39 71° WNW 18:50:51 10° NNE
FENGYUN 3A 4.0 18:41:38 10° SE 18:46:40 41° ENE 18:51:43 10° N
H-2A R/B 3.9 18:45:30 10° ESE 18:48:22 22° ENE 18:51:17 10° NNE
Cosmos 1709 Rocket 4.0 18:44:49 10° S 18:50:59 65° E 18:57:05 10° NNE
Cosmos 44 3.6 18:47:56 10° NW 18:52:16 59° WSW 18:56:28 10° SSE
Spot 2 Rocket 4.0 18:50:53 10° SE 18:55:30 38° ENE 19:00:10 10° N
Cosmos 2151 Rocket 3.8 18:52:17 10° S 18:56:46 76° W 19:01:18 10° N
Cosmos 614 Rocket 4.4 18:52:32 10° SSE 18:57:09 36° E 19:01:45 10° NE
Cosmos 1812 3.6 18:53:30 10° NNW 18:57:17 53° W 19:01:02 10° S
COSMOS 2428 4.0 18:53:30 10° N 18:57:34 20° NE 18:59:03 18° ENE
Cosmos 2292 Rocket 4.1 18:53:18 10° S 18:58:01 85° E 19:04:29 10° N
Helios 1A 4.3 18:58:08 20° ENE 18:58:22 20° ENE 19:01:23 10° NNE
Meteor 2-4 Rocket 4.4 18:54:19 10° NNE 18:59:11 31° ENE 19:03:55 10° SE
Okean 1 Rocket 3.4 18:58:58 10° SSE 19:03:11 42° E 19:07:26 10° NNE
HJ-1C 3.4 19:00:01 10° SSE 19:03:18 53° ENE 19:06:36 10° N
GPS 2-04 Rocket1 4.3 19:00:18 10° SSW 19:03:45 23° SSE 19:05:18 19° ESE
Abrixas rocket 4.3 19:04:17 10° S 19:05:50 15° SE 19:05:50 15° SE
CENTAUR R/B 4.5 19:02:34 10° NW 19:09:56 41° WSW 19:17:35 10° S
Meteor 1-11 Rocket 3.7 19:07:19 10° S 19:13:00 69° E 19:18:52 10° NNE
Cosmos 1954 Rocket 4.0 19:08:09 10° SSW 19:13:20 85° WNW 19:18:35 10° NNE
GEOS 3 Rocket 3.8 19:11:11 10° NNE 19:16:25 73° NW 19:21:41 10° SW
Cosmos 2219 3.6 19:13:54 10° S 19:19:13 40° ESE 19:23:09 17° NE
Cosmos 1633 2.8 19:16:07 10° SSW 19:19:46 70° W 19:23:28 10° N
Helios 1B rocket 2.9 19:20:32 37° E 19:20:35 37° E 19:24:26 10° SSE
FREGAT/IRIS 4.3 19:18:15 10° SSW 19:21:07 36° W 19:24:01 10° NNW
Cosmos 1602 3.8 19:17:22 10° S 19:21:13 75° W 19:25:07 10° N
Cosmos 2360 Rocket 2.1 19:18:29 10° NNW 19:24:08 68° ENE 19:28:57 14° SSE
Okean 1-7 Rocket 3.8 19:19:51 10° N 19:24:13 46° E 19:25:47 32° SE
Cosmos 2219 Rocket 3.7 19:22:59 10° N 19:25:54 18° NE 19:25:54 18° NE
NOSS 8 (E) 4.4 19:24:47 10° SSW 19:28:15 89° NW 19:29:17 43° NNE
Cosmos 1025 Rocket 3.8 19:29:26 10° N 19:32:29 35° NE 19:32:29 35° NE
ALOS 2.8 19:30:56 10° S 19:35:32 61° W 19:40:10 10° NNW
Spot 1 4.0 19:37:58 55° NE 19:37:58 55° NE 19:41:38 10° N
BREEZE-M DEB (TANK) 2.4 19:35:20 10° SW 19:39:11 70° W 19:39:11 70° W
Cosmos 2333 Rocket 3.8 19:48:22 10° N 19:51:05 21° NNE 19:51:05 21° NNE
Resurs 01 Rocket 2.5 19:48:52 10° S 19:53:08 48° W 19:57:24 10° NNW
Cosmos 1741 Rocket 4.0 19:48:39 10° SSW 19:53:52 80° WNW 19:59:07 10° NNE
BREEZE-M DEB (TANK) 4.2 19:52:05 10° NW 19:55:46 51° NE 19:56:45 46° ENE
H-2A R/B (2) 3.5 19:55:03 10° SSW 19:55:29 13° SSW 19:55:29 13° SSW
Tiangong 2 3.4 19:57:01 10° W 19:58:33 24° W 19:58:33 24° W
Cosmos 1610 Rocket 4.3 20:03:08 10° S 20:09:23 79° E 20:15:35 10° N
Cosmos 1570 Rocket 4.0 20:04:17 10° NNW 20:09:31 80° WSW 20:09:46 77° SW
Cosmos 1536 4.4 20:05:52 10° SW 20:09:32 34° WNW 20:13:12 10° NNW
Gbstr 26 Del rocket 4.2 20:06:26 10° WSW 20:09:10 34° WNW 20:09:10 34° WNW
DELTA 2 R/B (1) 3.6 20:04:32 10° WNW 20:10:07 70° SSW 20:10:13 70° SSW
Meteor 1-5 Rocket 4.5 20:06:32 10° SSW 20:12:29 73° W 20:18:26 10° N
COSMOS 2428 3.5 20:36:39 10° NNW 20:41:08 49° WNW 20:41:08 49° WNW
Cosmos 2237 Rocket 4.2 20:46:04 10° NNW 20:47:35 18° N 20:47:35 18° N
USA 229 DEB 4.4 21:01:59 10° NW 21:07:13 50° NW 21:07:13 50° NW
USA 229 4.4 21:02:05 10° NW 21:07:18 50° NW 21:07:18 50° NW
Cosmos 2219 Rocket 4.2 21:05:42 10° NNW 21:07:39 22° NW 21:07:39 22° NW
